Regional Weather Roundup
Issued by NWS

Home | Current Version | Previous Version | Graphics & Text | Print | Product List | Glossary On
Versions: 1 2 3 4 5 6 7 8 9 10 11 12 13 14 15 16 17 18 19 20 21 22 23 24 25 26 27 28 29 30 31 32 33 34 35 36 37 38 39 40 41 42 43 44 45 46 47 48 49 50
000
ASUS43 KDMX 250106
RWRIA

WEATHER ROUNDUP FOR IOWA
NATIONAL WEATHER SERVICE DES MOINES IA
800 PM CDT MON APR 24 2017

NOTE: "FAIR" INDICATES FEW OR NO CLOUDS BELOW 12,000 FEET WITH NO
SIGNIFICANT WEATHER AND/OR OBSTRUCTIONS TO VISIBILITY.

* - THESE STATIONS ARE NOT NWS STATIONS...THUS NOT UNDER NWS
QUALITY CONTROL.  THEY ALSO DO NOT REPORT WEATHER SUCH
AS PRECIPITATION OR FOG.

IAZ001>003-012>014-020>022-031>034-043>046-250200-
   NORTHWEST IOWA

CITY           SKY/WX    TMP DP  RH WIND       PRES   REMARKS
CARROLL *      CLOUDY    68  39  34 S14       29.54S
CHEROKEE *     CLOUDY    66  40  38 S12       29.51S
DENISON *      CLOUDY    68  41  37 S12       29.54S
LE MARS *      CLOUDY    68  43  40 W5        29.50R
ORANGE CITY *  CLOUDY    66  45  45 S6        29.50R
SHELDON *      CLOUDY    66  41  39 S10       29.48S
SIOUX CITY     CLOUDY    69  43  38 W3        29.49R
SPENCER        CLOUDY    66  39  37 S12       29.51F
STORM LAKE *   CLOUDY    68  39  34 S17       29.53S
$$

IAZ055>058-069>071-079>083-090>094-250200-
   SOUTHWEST IOWA

CITY           SKY/WX    TMP DP  RH WIND       PRES   REMARKS
ATLANTIC *     CLOUDY    70  41  35 S15       29.55S
AUDUBON *      CLOUDY    68  37  32 S8        29.56F
CLARINDA *     CLOUDY    70  41  35 S8        29.58S
COUNCIL BLFS * CLOUDY    68  43  40 S14       29.52S
CRESTON *      CLEAR     64  36  34 S12       29.60S
HARLAN  *      CLOUDY    70  41  35 S13G18    29.57S
LAMONI         CLEAR     68  32  26 S10       29.60R
RED OAK *      CLOUDY    70  41  35 S15G21    29.55S
SHENANDOAH *   CLOUDY    70  41  35 S16       29.54F
$$

IAZ047>049-059>061-072>074-084-250200-
   CENTRAL IOWA

CITY           SKY/WX    TMP DP  RH WIND       PRES   REMARKS
AMES           CLOUDY    68  30  24 S13       29.58S
ANKENY *       CLOUDY    68  30  24 S10       29.59S
BOONE *        CLEAR     68  30  24 S12       29.57S
CHARITON *     CLEAR     64  34  32 S7        29.60S
DES MOINES     CLOUDY    68  31  25 S8        29.59S
GRINNELL*      PTCLDY    68  29  23 SE9       29.63R
KNOXVILLE *    PTCLDY    68  32  26 SE7       29.59S
MARSHALLTOWN   CLOUDY    69  30  23 S14       29.60R
NEWTON *       MOCLDY    68  28  22 S12       29.60R
PELLA *        PTCLDY    70  27  20 S9        29.61S
PERRY *          N/A     67  29  24 S16       29.56F
$$

IAZ004>006-015-016-023>025-035-036-250200-
   NORTH CENTRAL IOWA

CITY           SKY/WX    TMP DP  RH WIND       PRES   REMARKS
ALGONA *       PTCLDY    64  32  29 S12       29.55S
CLARION *      CLEAR     66  30  26 S12       29.57S
ESTHERVILLE    CLOUDY    64  37  36 S9G17     29.52F
FORT DODGE *   CLEAR     68  28  22 S13       29.57S
MASON CITY     PTCLDY    64  31  28 S13       29.59S
FOREST CITY *    N/A     64  30  27 S13       29.57S
WEBSTER CITY * CLEAR     68  28  22 S15G22    29.55S
IOWA FALLS *     N/A     69  31  24 S12       29.61R
$$

IAZ007>011-017>019-026>030-037>042-050>054-066-250200-
   NORTHEAST IOWA

CITY           SKY/WX    TMP DP  RH WIND       PRES   REMARKS
CEDAR RAPIDS   CLOUDY    69  28  21 SE12G22   29.63S
CHARLES CITY * CLOUDY    68  25  19 S14       29.61S
CLINTON *      CLOUDY    65  33  30 S6        29.70S
DECORAH *      CLOUDY    66  28  24 SE8       29.63R
DUBUQUE        CLOUDY    66  29  24 SE12      29.69F
MONTICELLO *   CLOUDY    70  28  21 SE10      29.66F
OELWEIN *      CLOUDY    66  30  26 SE15      29.62F
WATERLOO       CLOUDY    69  25  19 S13       29.61S
$$

IAZ064-065-067-068-078-250200-
   EAST CENTRAL IOWA

CITY           SKY/WX    TMP DP  RH WIND       PRES   REMARKS
DAVENPORT      PTCLDY    64  30  27 SE10      29.69S
IOWA CITY      PTCLDY    70  29  21 SE9       29.65F
MT. PLEASANT * CLOUDY    65  32  29 SE9       29.65F
MUSCATINE *    PTCLDY    70  28  21 SE9       29.66F
QUAD CITIES    CLOUDY    63  35  35 SE6       29.68S
$$

IAZ062-063-075>077-085>089-095>099-250200-
   SOUTHEAST IOWA

CITY           SKY/WX    TMP DP  RH WIND       PRES   REMARKS
BURLINGTON     CLOUDY    64  34  32 S6        29.67S
FAIRFIELD *    MOCLDY    66  30  26 SE9       29.63F
FORT MADISON * PTCLDY    70  30  23 SE6       29.67F
KEOKUK *       PTCLDY    68  30  24 SE6       29.65F
OSKALOOSA *      N/A     68  29  23 SE10      29.62F
CENTERVILLE *    N/A     63  36  36 CALM      29.63S
OTTUMWA        CLOUDY    68  31  25 SE10      29.62F
WASHINGTON *   CLOUDY    66  30  26 SE9       29.65F
$$

ABBREVIATIONS USED IN REMARKS
   TC - TEMPERATURES IN CELSIUS
  WCI - WIND CHILL INDEX
   HX - HEAT INDEX
  VSB - VISIBILITY
$$





USA.gov is the U.S. government's official web portal to all federal, state and local government web resources and services.